This is the latest recevied weather packets stored in our database for station/object VE6KEE-13. If no packets are shown the sender has not sent any weather packets the latest 10 day(s).
| Time | Temp. | Humidity | Pressure | Rain* | Wind** | Luminosity | Snow |
|---|---|---|---|---|---|---|---|
| 1777973723 | 2.78° C | 43% | 1022.6 hPa | 0 mm | - | - | - |
| 1777972823 | 2.78° C | 43% | 1022.3 hPa | 0 mm | - | - | - |
| 1777971922 | 2.78° C | 43% | 1022.2 hPa | 0 mm | - | - | - |
| 1777971021 | 3.33° C | 43% | 1022.2 hPa | 0 mm | - | - | - |
| 1777970128 | 3.33° C | 42% | 1022.1 hPa | 0 mm | - | - | - |
| 1777969219 | 3.33° C | 42% | 1022.1 hPa | 0.25 mm | - | - | - |
| 1777968323 | 3.33° C | 41% | 1022 hPa | 0.25 mm | - | - | - |
| 1777967417 | 3.89° C | 40% | 1021.8 hPa | 0.25 mm | - | - | - |
| 1777966517 | 3.89° C | 40% | 1021.7 hPa | 0.25 mm | - | - | - |
| 1777965617 | 4.44° C | 40% | 1021.6 hPa | 0.25 mm | - | - | - |
| 1777964722 | 4.44° C | 39% | 1021.4 hPa | 0.25 mm | - | - | - |
| 1777963815 | 5° C | 39% | 1021.4 hPa | 0.25 mm | - | - | - |
| 1777962914 | 5° C | 38% | 1021.3 hPa | 0 mm | - | - | - |
| 1777962014 | 5.56° C | 38% | 1021 hPa | 0 mm | - | - | - |
| 1777961113 | 5.56° C | 37% | 1021 hPa | 0 mm | - | - | - |
| 1777960212 | 6.11° C | 37% | 1021 hPa | 0 mm | - | - | - |
| 1777959316 | 6.11° C | 36% | 1020.9 hPa | 0 mm | - | - | - |
| 1777958411 | 6.11° C | 36% | 1020.5 hPa | 0 mm | - | - | - |
| 1777957511 | 6.67° C | 36% | 1020.4 hPa | 0 mm | - | - | - |
| 1777956609 | 6.67° C | 35% | 1020.3 hPa | 0 mm | - | - | - |
| 1777955711 | 6.67° C | 35% | 1020.3 hPa | 0 mm | - | - | - |
| 1777954808 | 7.22° C | 35% | 1020 hPa | 0 mm | - | - | - |
| 1777953915 | 7.78° C | 34% | 1019.8 hPa | 0 mm | - | - | - |
| 1777953005 | 7.78° C | 33% | 1019.6 hPa | 0 mm | - | - | - |
| 1777952105 | 8.33° C | 33% | 1019.6 hPa | 0 mm | - | - | - |
* Rain since midnight (hover to see other rain measurements)
** Current wind speed in m/s (hover to see current wind gust speed)